STARLINK-34047, 63821

Orbit data source: Space-Track

STARLINK-34047, 63821 is a payload satellite owned by SpaceX/Seattle (US) in LEO that was launched on Sun, 04 May 2025 UTC via an FALCON 9 launch vehicle from the Air Force Eastern Test Range (AFETR). Payload-class satellites include a variety of spacecraft equipped with specific instruments for various scientific and technological missions. These include communications satellites like Starlink; space stations such as the ISS; scientific satellites like the Hubble; Earth observation satellites from companies like Planet Labs, Umbra, and HawkEye 360; GPS; miniature CubeSats for education and research; and military/defense satellites.

Loading next visibility...
Identifier
63821, 2025-092T
Orbit
LEO
Country
Flag of USUS
Related business
Manufacturer
SpaceX/Seattle
Mission
Operational Commercial Communications
Bus & Motor
STARLINK V2MO, Unknown motor
Mass
575 kg wet, ~530 kg dry
Launch date (UTC)
2025-05-04 (7 months ago)
Launch vehicle
FALCON 9
Launch site
Air Force Eastern Test Range (AFETR)
Object type
Payload
Rocket body
Debris
Shape & HBR
Box + 2 Pan, 17.7 m
Radar Cross Section
36.964 m², Large (>1 m²)

Expand to show TLE details & history
Last TLE update: 14 hours ago

TLE from 14 hours ago
0 STARLINK-34047
1 63821U 25092T   25347.25236606  .00054984  00000-0  19895-2 0  9993
2 63821  42.9994 300.8326 0001427 268.9563  91.1125 15.27633483 35441
Epoch: 2025-12-13T06:03Z
TLE epoch observation values (Epoch: 2025-12-13T06:03:24.427Z)
Latitude
-0.00003°
Longitude
127.79848°
Altitude
482.683 km
Speed
7.626 km/s
True Right ascension
20h 03m 19s
True Declination
0° 00' 00"
Sunlit
Object was in daylight at epoch
Visualization orbit readout
Latitude
Unknown
Longitude
Unknown
Altitude
Unknown
Speed
Unknown
Apparent Right ascension
Unknown
Apparent Declination
Unknown
Sunlit
N/A
Visualization observer readout
Local Sidereal Time
18:43:57
Azimuth
Unknown
Elevation
Unknown
Doppler factor
Unknown
Orbital elements
Apogee altitude
485.814 km
Perigee altitude
483.855 km
Semi-major axis
6,862.971 km
Eccentricity
0.00014
Inclination
42.9994°
RAAN
300.8326°
Arg. of periapsis
268.9563°
True anomaly
91.12885°
Mean anomaly
91.1125°
Eccentric anomaly
91.12067°
Mean motion
3.81746 °/min
Orbital period
94.3 mins
BSTAR
0.0019895
Loading maneuver chart data...
Computing Atmospheric mass density...
Loading historical data...
Loading historical data...
Loading historical data...
Loading historical data...
Loading historical data...
Loading historical data...
Loading historical data...

Documentation

Showing up to 5 results
|